COSMOS 2251 DEB, 37284

Orbit data source: Space-Track

COSMOS 2251 DEB, 37284 is space debris in LEO originally from a launch on Wed, 16 Jun 1993 UTC launched from the Plesetsk Missile And Space Complex (PKMTR). The debris from Iridium 33, an American commercial communications satellite, has been tracked extensively since its accidental collision with the defunct Russian satellite Cosmos 2251 in 2009. This event, occurring at high speed in low Earth orbit (LEO), generated thousands of pieces of space debris, significantly increasing the risk of further collisions. The Iridium 33 debris cloud has impacted space traffic management and orbital debris mitigation strategies, making it a subject of ongoing study in space situational awareness.

Loading next visibility...
Identifier
37284, 1993-036BHY
Orbit
LEO
Country
Flag of CISCIS
Related business
Manufacturer
Unknown
Mission
Spacecraft
Bus & Motor
Unknown
Mass
Unknown
Launch date (UTC)
1993-06-16 (32 years ago)
Launch vehicle
Unknown
Launch site
Plesetsk Missile And Space Complex (PKMTR)
Object type
Payload
Rocket body
Debris
Shape & HBR
Unknown shape, 0.1 m
Radar Cross Section
Small (<0.1 m²)

Expand to show TLE details & history
Last TLE update: 14 hours ago

TLE from 14 hours ago
0 COSMOS 2251 DEB
1 37284U 93036BHY 25299.59983910  .00006153  00000-0  29787-2 0  9996
2 37284  74.0197 240.1448 0158895  40.9275 136.6598 14.12252532585092
Epoch: 2025-10-26T14:23Z
TLE epoch observation values (Epoch: 2025-10-26T14:23:46.098Z)
Latitude
1.03238°
Longitude
168.69487°
Altitude
938.538 km
Speed
7.34 km/s
True Right ascension
03h 59m 24s
True Declination
1° 01' 35"
Sunlit
Object was in full shadow at epoch
Visualization orbit readout
Latitude
Unknown
Longitude
Unknown
Altitude
Unknown
Speed
Unknown
Apparent Right ascension
Unknown
Apparent Declination
Unknown
Sunlit
N/A
Visualization observer readout
Local Sidereal Time
23:39:28
Azimuth
Unknown
Elevation
Unknown
Doppler factor
Unknown
Orbital elements
Apogee altitude
964.165 km
Perigee altitude
734.484 km
Semi-major axis
7,227.462 km
Eccentricity
0.01589
Inclination
74.0197°
RAAN
240.1448°
Arg. of periapsis
40.9275°
True anomaly
137.89157°
Mean anomaly
136.6598°
Eccentric anomaly
137.27746°
Mean motion
3.53236 °/min
Orbital period
101.91 mins
BSTAR
0.0029787
Loading maneuver chart data...
Computing Atmospheric mass density...

Documentation

Showing up to 5 results
|